[[{"header":{"parameterUnit":"m.s-1","parameterCategory":2,"la1":30.2992,"la2":30.254,"lo1":-89.0895,"lo2":-89.0443,"dy":0.0025,"dx":0.0025,"nx":19,"ny":19,"refTime":"2026-04-03T21:00:00:Z","depth":"0","parameterNumber":2,"parameterNumberName":"U-component_of_CURRENTS"},"data":[0,0,0,-0.2278,-0.2279,-0.2292,-0.2292,-0.2235,-0.2235,0,0,0,0,0,0,0,0,0,0,0,-0.2259,-0.2259,-0.2278,-0.2279,-0.2292,-0.2292,-0.2235,-0.2235,0,0,0,0,0,0,0,0,0,0,0,-0.2259,-0.2259,-0.226,-0.2279,-0.2292,-0.2292,-0.2236,-0.224,0,0,0,0,0,0,0,0,0,0,-0.2235,-0.2219,-0.2259,-0.226,-0.2279,-0.2292,-0.2292,-0.2241,-0.224,-0.2213,0,-0.2217,0,-0.2236,-0.2231,-0.223,0,0,0,-0.2264,-0.222,-0.2244,-0.226,-0.228,-0.2292,-0.2282,-0.2241,-0.2239,-0.2211,-0.2217,-0.2216,-0.2235,-0.223,-0.223,-0.2246,-0.2246,0,0,-0.2263,-0.224,-0.2245,-0.2243,-0.2284,-0.2281,-0.2282,-0.2241,-0.2226,-0.2217,-0.2215,-0.2234,-0.223,-0.2229,-0.2245,-0.2246,0,0,0,-0.2271,-0.2239,-0.2264,-0.2244,-0.2259,-0.2282,-0.2283,-0.2227,-0.2241,-0.2215,-0.2234,-0.223,-0.2229,-0.2244,-0.2245,-0.2254,0,0,0,-0.227,-0.2246,-0.2264,-0.2247,-0.226,-0.225,-0.227,-0.2244,-0.2241,-0.2234,-0.223,-0.2228,-0.2244,-0.2245,-0.2253,-0.2221,0,0,0,-0.2259,-0.2244,-0.2251,-0.2246,-0.2264,-0.2252,-0.2263,-0.2244,-0.2252,-0.223,-0.2228,-0.2243,-0.2245,-0.2251,-0.222,-0.2125,0,0,0,-0.2227,-0.2211,-0.225,-0.2242,-0.2264,-0.229,-0.2264,-0.2251,-0.2232,-0.2229,-0.2244,-0.2245,-0.2251,-0.222,-0.2126,-0.1925,-0.1904,0,0,-0.2189,-0.2205,-0.2206,-0.2242,-0.2279,-0.2287,-0.2311,-0.2266,-0.2251,-0.2247,-0.2248,-0.2253,-0.222,-0.2125,-0.2012,-0.1987,0,0,0,-0.2184,-0.2198,-0.2209,-0.2246,-0.2273,-0.2307,-0.2299,-0.2287,-0.2276,-0.2252,-0.2281,-0.226,-0.2199,-0.2082,-0.2064,-0.1968,-0.2252,-0.2252,-0.2252,-0.211,-0.2166,-0.2191,-0.2267,-0.2287,-0.232,-0.2315,-0.231,-0.2302,-0.2304,-0.229,-0.2253,-0.2135,-0.2117,-0.2025,-0.2334,-0.2334,-0.2334,-0.2334,-0.2104,-0.2124,-0.221,-0.2256,-0.2311,-0.2338,-0.2348,-0.2335,-0.2284,-0.2318,-0.2258,-0.2127,-0.2096,-0.2005,-0.2335,-0.2335,-0.2335,-0.2335,-0.2335,-0.2074,-0.2087,-0.2145,-0.2224,-0.2278,-0.2332,-0.2292,-0.2304,-0.2267,-0.223,-0.2035,-0.2033,-0.1922,-0.2184,-0.2183,-0.2183,-0.2182,-0.2182,-0.2182,-0.1992,-0.2056,-0.208,-0.2178,-0.2205,-0.2233,-0.2234,-0.217,-0.2045,-0.1997,-0.1995,-0.1893,-0.2204,-0.2175,-0.2174,-0.2175,-0.2176,-0.2177,-0.2178,-0.191,-0.1937,-0.197,-0.1999,-0.2061,-0.198,-0.2038,-0.1843,-0.178,-0.166,-0.1581,-0.1847,-0.1796,-0.1809,-0.1771,-0.1664,-0.1664,-0.1664,-0.1663,-0.1816,-0.1847,-0.1843,-0.1854,-0.1855,-0.185,-0.1591,-0.1478,-0.1345,-0.1253,-0.1322,-0.1335,-0.136,-0.1287,-0.1312,-0.1266,-0.1034,-0.1033,-0.1032,-0.1733,-0.1758,-0.1708,-0.1754,-0.1751,-0.1641,-0.1333,-0.1096,-0.0974,-0.1008,-0.1231,-0.1257,-0.1289,-0.1336,-0.1238,-0.1281,-0.1212,0,0]},{"header":{"parameterUnit":"m.s-1","parameterCategory":2,"la1":30.2992,"la2":30.254,"lo1":-89.0895,"lo2":-89.0443,"dy":0.0025,"dx":0.0025,"nx":19,"ny":19,"refTime":"2026-04-03T21:00:00:Z","depth":"0","parameterNumber":3,"parameterNumberName":"V-component_of_CURRENTS"},"data":[0,0,0,-0.0354,-0.0352,-0.0277,-0.0276,-0.0141,-0.014,0,0,0,0,0,0,0,0,0,0,0,-0.0382,-0.0382,-0.0354,-0.0352,-0.0277,-0.0276,-0.0141,-0.014,0,0,0,0,0,0,0,0,0,0,0,-0.0383,-0.0382,-0.0382,-0.0352,-0.0277,-0.0276,-0.0141,-0.0205,0,0,0,0,0,0,0,0,0,0,-0.0282,-0.0324,-0.0382,-0.0382,-0.0352,-0.0277,-0.0276,-0.0208,-0.0201,-0.0168,0,-0.0166,0,-0.0152,-0.0131,-0.013,0,0,0,-0.034,-0.0331,-0.0306,-0.0382,-0.0351,-0.0277,-0.0307,-0.0205,-0.0196,-0.0158,-0.0164,-0.0159,-0.015,-0.013,-0.0129,0.0034,0.0035,0,0,-0.0345,-0.0367,-0.0312,-0.0301,-0.0343,-0.031,-0.0305,-0.02,-0.0197,-0.0164,-0.0156,-0.0148,-0.0129,-0.0128,0.0033,0.0034,0,0,0,-0.0365,-0.037,-0.0349,-0.0307,-0.0298,-0.0308,-0.0303,-0.0202,-0.0194,-0.0154,-0.0146,-0.0128,-0.0127,0.0032,0.0034,0.0012,0,0,0,-0.0367,-0.0382,-0.0351,-0.0363,-0.03,-0.0256,-0.0307,-0.0202,-0.0189,-0.0147,-0.0128,-0.0125,0.0032,0.0033,0.001,-0.0018,0,0,0,-0.0384,-0.0384,-0.0378,-0.0365,-0.0337,-0.0257,-0.0243,-0.0199,-0.0184,-0.013,-0.0125,0.0031,0.0033,0.0009,-0.0018,0.0015,0,0,0,-0.0404,-0.041,-0.0379,-0.0385,-0.0338,-0.0292,-0.0244,-0.0206,-0.0166,-0.0128,0.0032,0.0034,0.0009,-0.0019,0.0014,0.0029,0.0034,0,0,-0.0424,-0.0413,-0.0417,-0.0387,-0.0367,-0.0301,-0.0238,-0.017,-0.0116,-0.0,0.0003,0.0011,-0.0018,0.0015,0.0138,0.014,0,0,0,-0.0431,-0.0437,-0.0426,-0.0407,-0.0358,-0.0279,-0.0207,-0.0138,-0.0026,-0.0084,0.0056,0.0039,0.006,0.0069,0.0071,0.0202,0.0042,0.0042,0.0042,-0.0478,-0.0457,-0.0458,-0.0417,-0.037,-0.0255,-0.0173,-0.0053,-0.0018,0.0047,0.0055,0.0108,0.012,0.0121,0.0257,0.0105,0.0105,0.0105,0.0105,-0.0526,-0.0531,-0.048,-0.0478,-0.0376,-0.0307,-0.0116,-0.0053,0.0088,0.0104,0.0126,0.0087,0.0122,0.0267,0.0104,0.0104,0.0104,0.0104,0.0104,-0.0573,-0.0569,-0.0568,-0.0542,-0.0458,-0.0332,-0.0205,-0.007,0.0055,0.0091,0.0123,0.0124,0.022,0.0104,0.0104,0.0104,0.0104,0.0104,0.0104,-0.0623,-0.0615,-0.0636,-0.06,-0.0565,-0.0464,-0.026,-0.0157,0.0006,0.0102,0.0103,0.0273,0.0109,0.0074,0.0105,0.0105,0.0105,0.0105,0.0105,-0.0682,-0.0686,-0.0714,-0.0707,-0.0627,-0.0536,-0.0369,-0.0146,-0.0028,0.0054,0.0311,0.0135,0.0144,0.0144,0.0112,0.0151,0.0151,0.0151,0.0151,-0.0721,-0.0728,-0.0757,-0.0742,-0.0683,-0.0554,-0.0383,-0.0136,0.0194,0.0369,0.0406,0.0427,0.0419,0.0447,0.044,0.0415,0.053,0.0531,0.0532,-0.0755,-0.0763,-0.0781,-0.0769,-0.0699,-0.057,-0.0388,-0.004,0.0422,0.0561,0.059,0.0574,0.0619,0.0595,0.0646,0.0625,0.0587,0,0]}],[{"header":{"parameterUnit":"m.s-1","parameterCategory":2,"la1":30.2992,"la2":30.254,"lo1":-89.0895,"lo2":-89.0443,"dy":0.0025,"dx":0.0025,"nx":19,"ny":19,"refTime":"2026-04-03T21:00:00:Z","depth":"2","parameterNumber":2,"parameterNumberName":"U-component_of_CURRENTS"},"data":[0,0,0,-0.1898,-0.1899,-0.1922,-0.1922,-0.1918,-0.1918,0,0,0,0,0,0,0,0,0,0,0,-0.1887,-0.1887,-0.1898,-0.1899,-0.1922,-0.1922,-0.1918,-0.1918,0,0,0,0,0,0,0,0,0,0,0,-0.1887,-0.1887,-0.1887,-0.1899,-0.1922,-0.1922,-0.1918,-0.1909,0,0,0,0,0,0,0,0,0,0,-0.1891,-0.1879,-0.1887,-0.1887,-0.1899,-0.1922,-0.1922,-0.1909,-0.191,-0.1898,0,-0.1899,0,-0.1908,-0.1917,-0.1916,0,0,0,-0.19,-0.1879,-0.1891,-0.1887,-0.1899,-0.1921,-0.1912,-0.191,-0.191,-0.1898,-0.1899,-0.1899,-0.1908,-0.1916,-0.1916,-0.1933,-0.1933,0,0,-0.1899,-0.1886,-0.1891,-0.1891,-0.1901,-0.1911,-0.1912,-0.1911,-0.1905,-0.1899,-0.1899,-0.1908,-0.1916,-0.1916,-0.1933,-0.1933,0,0,0,-0.1895,-0.1885,-0.1897,-0.1891,-0.1898,-0.1912,-0.1913,-0.1905,-0.1911,-0.1899,-0.1908,-0.1916,-0.1916,-0.1933,-0.1933,-0.1941,0,0,0,-0.1894,-0.1882,-0.1897,-0.1888,-0.1898,-0.1905,-0.1907,-0.1911,-0.1911,-0.1908,-0.1916,-0.1916,-0.1932,-0.1933,-0.194,-0.1933,0,0,0,-0.1887,-0.1881,-0.1884,-0.1888,-0.1898,-0.1905,-0.1911,-0.1912,-0.1916,-0.1916,-0.1916,-0.1932,-0.1933,-0.1939,-0.1932,-0.1862,0,0,0,-0.1872,-0.1859,-0.1884,-0.1879,-0.1898,-0.1923,-0.1911,-0.1919,-0.1921,-0.1916,-0.1932,-0.1933,-0.1938,-0.1931,-0.1862,-0.1673,-0.1654,0,0,-0.1845,-0.1855,-0.1856,-0.1879,-0.1902,-0.1921,-0.1941,-0.1931,-0.1929,-0.193,-0.193,-0.194,-0.1932,-0.1862,-0.1716,-0.1696,0,0,0,-0.1842,-0.1845,-0.1856,-0.1878,-0.1907,-0.1934,-0.1943,-0.1943,-0.1947,-0.1934,-0.1953,-0.1948,-0.1903,-0.1791,-0.1776,-0.1937,-0.1936,-0.1936,-0.1936,-0.1779,-0.1819,-0.1831,-0.1882,-0.1905,-0.1943,-0.195,-0.1956,-0.196,-0.1966,-0.1964,-0.1932,-0.1816,-0.1801,-0.1981,-0.1981,-0.1982,-0.1982,-0.1982,-0.1751,-0.1757,-0.1823,-0.185,-0.19,-0.1928,-0.196,-0.1965,-0.1951,-0.198,-0.1935,-0.1819,-0.1784,-0.1982,-0.1982,-0.1982,-0.1982,-0.1982,-0.1982,-0.1712,-0.1716,-0.1757,-0.1802,-0.185,-0.1908,-0.1901,-0.1943,-0.1942,-0.1926,-0.1754,-0.1752,-0.1894,-0.1891,-0.189,-0.189,-0.189,-0.1889,-0.1889,-0.1634,-0.1677,-0.1681,-0.1744,-0.1765,-0.1804,-0.1862,-0.1839,-0.1766,-0.1734,-0.1731,-0.1899,-0.1902,-0.1888,-0.1884,-0.1885,-0.1886,-0.1886,-0.1887,-0.1545,-0.1569,-0.1564,-0.1579,-0.1621,-0.1567,-0.1667,-0.156,-0.1543,-0.1447,-0.1595,-0.1603,-0.1565,-0.1575,-0.1552,-0.1462,-0.1462,-0.1462,-0.1462,-0.1458,-0.1479,-0.1437,-0.1426,-0.1424,-0.1444,-0.1269,-0.1209,-0.1224,-0.1212,-0.1223,-0.1221,-0.1242,-0.1187,-0.1207,-0.1178,-0.099,-0.0989,-0.0989,-0.1371,-0.1379,-0.1308,-0.1322,-0.1318,-0.1258,-0.103,-0.0843,-0.0828,-0.0978,-0.122,-0.1415,-0.1442,-0.1464,-0.1407,-0.1429,-0.1392,0,0]},{"header":{"parameterUnit":"m.s-1","parameterCategory":2,"la1":30.2992,"la2":30.254,"lo1":-89.0895,"lo2":-89.0443,"dy":0.0025,"dx":0.0025,"nx":19,"ny":19,"refTime":"2026-04-03T21:00:00:Z","depth":"2","parameterNumber":3,"parameterNumberName":"V-component_of_CURRENTS"},"data":[0,0,0,-0.0463,-0.0462,-0.041,-0.041,-0.0307,-0.0306,0,0,0,0,0,0,0,0,0,0,0,-0.048,-0.048,-0.0463,-0.0462,-0.041,-0.041,-0.0307,-0.0306,0,0,0,0,0,0,0,0,0,0,0,-0.048,-0.048,-0.048,-0.0462,-0.041,-0.041,-0.0307,-0.0352,0,0,0,0,0,0,0,0,0,0,-0.0406,-0.0437,-0.048,-0.048,-0.0462,-0.041,-0.041,-0.0355,-0.0349,-0.0324,0,-0.0324,0,-0.0317,-0.0299,-0.0299,0,0,0,-0.045,-0.0441,-0.0425,-0.048,-0.0461,-0.041,-0.043,-0.0352,-0.0346,-0.0317,-0.0323,-0.0319,-0.0315,-0.0299,-0.0298,-0.0218,-0.0218,0,0,-0.0452,-0.0468,-0.0429,-0.0422,-0.0458,-0.0432,-0.0429,-0.0349,-0.0347,-0.0322,-0.0317,-0.0314,-0.0298,-0.0297,-0.0218,-0.0218,0,0,0,-0.0469,-0.0471,-0.0457,-0.0426,-0.0422,-0.0431,-0.0427,-0.035,-0.0346,-0.0316,-0.0313,-0.0297,-0.0296,-0.0218,-0.0218,-0.0274,0,0,0,-0.047,-0.0481,-0.0458,-0.0467,-0.0424,-0.0392,-0.0431,-0.0351,-0.0342,-0.0313,-0.0297,-0.0295,-0.0219,-0.0218,-0.0273,-0.0288,0,0,0,-0.0481,-0.0482,-0.0479,-0.0468,-0.0451,-0.0393,-0.0383,-0.0349,-0.034,-0.0299,-0.0295,-0.0219,-0.0218,-0.0272,-0.0286,-0.0235,0,0,0,-0.0494,-0.0508,-0.048,-0.0495,-0.0452,-0.0435,-0.0384,-0.0359,-0.0329,-0.0297,-0.0219,-0.0218,-0.0271,-0.0285,-0.0235,-0.02,-0.0197,0,0,-0.0521,-0.0511,-0.0521,-0.0495,-0.0505,-0.0441,-0.0429,-0.0365,-0.0311,-0.024,-0.0239,-0.0273,-0.0286,-0.0235,-0.0181,-0.0179,0,0,0,-0.0537,-0.0549,-0.0545,-0.0544,-0.0514,-0.0477,-0.0417,-0.037,-0.0298,-0.0293,-0.0251,-0.0256,-0.0222,-0.02,-0.0199,-0.0217,-0.0217,-0.0217,-0.0217,-0.059,-0.0582,-0.0606,-0.0591,-0.0569,-0.0498,-0.045,-0.0369,-0.0326,-0.0294,-0.0286,-0.0263,-0.0242,-0.024,-0.0271,-0.0271,-0.0271,-0.0272,-0.0272,-0.0655,-0.0675,-0.0656,-0.0677,-0.0624,-0.0598,-0.0477,-0.0425,-0.0317,-0.0301,-0.0265,-0.0242,-0.0241,-0.0276,-0.0275,-0.0274,-0.0274,-0.0274,-0.0273,-0.0703,-0.0713,-0.0726,-0.0747,-0.0722,-0.065,-0.0575,-0.0475,-0.0361,-0.0327,-0.0241,-0.024,-0.0279,-0.0293,-0.0293,-0.0293,-0.0293,-0.0293,-0.0292,-0.0747,-0.076,-0.0802,-0.0812,-0.0813,-0.0764,-0.0618,-0.0526,-0.0365,-0.0278,-0.0277,-0.0269,-0.0268,-0.0277,-0.029,-0.0291,-0.0291,-0.0291,-0.0291,-0.0805,-0.0811,-0.0874,-0.0895,-0.0889,-0.0828,-0.0701,-0.0477,-0.0356,-0.0266,-0.0225,-0.0227,-0.0189,-0.019,-0.0195,-0.0186,-0.0186,-0.0186,-0.0186,-0.0837,-0.0849,-0.0923,-0.0957,-0.095,-0.0854,-0.0667,-0.0433,-0.0237,-0.0148,-0.015,-0.0164,-0.0169,-0.013,-0.0132,-0.0136,-0.0112,-0.0112,-0.0111,-0.0871,-0.0893,-0.0941,-0.098,-0.0977,-0.0857,-0.0651,-0.0311,-0.0065,-0.011,-0.0155,-0.0177,-0.0203,-0.0209,-0.0152,-0.0154,-0.0162,0,0]}],[{"header":{"parameterUnit":"m.s-1","parameterCategory":2,"la1":30.2992,"la2":30.254,"lo1":-89.0895,"lo2":-89.0443,"dy":0.0025,"dx":0.0025,"nx":19,"ny":19,"refTime":"2026-04-03T21:00:00:Z","depth":"4","parameterNumber":2,"parameterNumberName":"U-component_of_CURRENTS"},"data":[0,0,0,-0.1282,-0.1283,-0.1366,-0.1367,-0.1438,-0.1438,0,0,0,0,0,0,0,0,0,0,0,-0.1257,-0.1258,-0.1281,-0.1283,-0.1366,-0.1367,-0.1438,-0.1438,0,0,0,0,0,0,0,0,0,0,0,-0.1257,-0.1258,-0.1259,-0.1284,-0.1366,-0.1367,-0.1438,-0.1385,0,0,0,0,0,0,0,0,0,0,-0.1309,-0.1295,-0.1258,-0.1259,-0.1284,-0.1366,-0.1367,-0.1383,-0.1388,-0.1389,0,-0.1405,0,-0.1419,-0.1442,-0.1442,0,0,0,-0.1288,-0.129,-0.1307,-0.1259,-0.1285,-0.1366,-0.133,-0.1386,-0.1392,-0.1396,-0.1406,-0.1409,-0.142,-0.1442,-0.1443,-0.1466,-0.1466,0,0,-0.1284,-0.1278,-0.1303,-0.131,-0.131,-0.1328,-0.1333,-0.139,-0.1401,-0.1407,-0.1411,-0.1421,-0.1443,-0.1443,-0.1466,-0.1466,0,0,0,-0.1267,-0.1275,-0.1291,-0.1307,-0.1323,-0.133,-0.1336,-0.1399,-0.1403,-0.1412,-0.1422,-0.1443,-0.1444,-0.1466,-0.1466,-0.1453,0,0,0,-0.1265,-0.1264,-0.1288,-0.1286,-0.1322,-0.1367,-0.1343,-0.1399,-0.1406,-0.1422,-0.1443,-0.1444,-0.1467,-0.1466,-0.1454,-0.143,0,0,0,-0.1253,-0.1263,-0.1273,-0.1286,-0.1318,-0.1367,-0.1375,-0.1401,-0.1411,-0.1442,-0.1444,-0.1467,-0.1466,-0.1454,-0.1432,-0.1411,0,0,0,-0.1243,-0.1245,-0.1273,-0.1288,-0.1317,-0.1361,-0.1375,-0.1421,-0.145,-0.1443,-0.1467,-0.1466,-0.1455,-0.1433,-0.1412,-0.1255,0,0,0,-0.1232,-0.1244,-0.1252,-0.1278,-0.1307,-0.1349,-0.1373,-0.1421,-0.144,-0.1447,-0.1448,-0.1454,-0.1432,-0.1412,-0.1238,0,0,0,0,-0.1239,-0.1243,-0.126,-0.1288,-0.133,-0.1354,-0.1407,-0.1413,-0.1434,-0.1454,-0.1451,-0.1437,-0.1425,-0.1337,-0.1465,-0.1465,-0.1465,-0.1465,-0.1465,-0.1198,-0.1227,-0.124,-0.1278,-0.1311,-0.1363,-0.1375,-0.1389,-0.1428,-0.1427,-0.1425,-0.1396,-0.1303,-0.1433,-0.1433,-0.1433,-0.1433,-0.1433,-0.1433,-0.1163,-0.1159,-0.1213,-0.1236,-0.1278,-0.1309,-0.1337,-0.136,-0.1363,-0.1394,-0.1384,-0.1327,-0.1432,-0.1432,-0.1432,-0.1432,-0.1432,-0.1432,-0.1432,-0.1118,-0.1114,-0.1153,-0.1181,-0.1213,-0.1266,-0.1255,-0.13,-0.1337,-0.1335,-0.1252,-0.1377,-0.1379,-0.1349,-0.1349,-0.1348,-0.1348,-0.1348,-0.1348,-0.104,-0.1075,-0.1073,-0.1115,-0.1126,-0.1152,-0.121,-0.121,-0.1267,-0.1201,-0.134,-0.1367,-0.137,-0.1373,-0.1345,-0.1345,-0.1346,-0.1346,-0.1346,-0.0947,-0.0979,-0.0956,-0.0963,-0.0976,-0.0983,-0.1079,-0.1072,-0.1056,-0.1022,-0.1121,-0.1133,-0.1118,-0.1126,-0.1121,-0.1017,-0.1015,-0.1012,0,-0.0871,-0.0889,-0.0839,-0.0807,-0.0781,-0.0861,-0.082,-0.0863,-0.0913,-0.088,-0.105,-0.1162,-0.117,-0.1156,-0.116,-0.1153,0,0,0,-0.0793,-0.0791,-0.0721,-0.0713,-0.0676,-0.0702,-0.0798,-0.077,-0.092,-0.0867,-0.0958,-0.0972,-0.1206,-0.1336,-0.1341,-0.1344,-0.1349,0,0]},{"header":{"parameterUnit":"m.s-1","parameterCategory":2,"la1":30.2992,"la2":30.254,"lo1":-89.0895,"lo2":-89.0443,"dy":0.0025,"dx":0.0025,"nx":19,"ny":19,"refTime":"2026-04-03T21:00:00:Z","depth":"4","parameterNumber":3,"parameterNumberName":"V-component_of_CURRENTS"},"data":[0,0,0,-0.0351,-0.0352,-0.0345,-0.0344,-0.0302,-0.0302,0,0,0,0,0,0,0,0,0,0,0,-0.0355,-0.0355,-0.0351,-0.0352,-0.0345,-0.0344,-0.0303,-0.0302,0,0,0,0,0,0,0,0,0,0,0,-0.0355,-0.0355,-0.0355,-0.0352,-0.0345,-0.0344,-0.0303,-0.0314,0,0,0,0,0,0,0,0,0,0,-0.0324,-0.034,-0.0355,-0.0355,-0.0352,-0.0345,-0.0344,-0.0315,-0.0314,-0.0299,0,-0.0305,0,-0.0305,-0.0299,-0.0299,0,0,0,-0.0344,-0.0341,-0.0336,-0.0355,-0.0352,-0.0345,-0.0346,-0.0314,-0.0313,-0.0296,-0.0304,-0.0303,-0.0304,-0.0299,-0.0299,-0.0303,-0.0304,0,0,-0.0344,-0.0354,-0.0338,-0.0335,-0.0359,-0.0346,-0.0345,-0.0314,-0.0317,-0.0304,-0.0302,-0.0303,-0.0299,-0.0298,-0.0303,-0.0303,0,0,0,-0.0351,-0.0354,-0.035,-0.0337,-0.0339,-0.0346,-0.0345,-0.0318,-0.0316,-0.0302,-0.0303,-0.0298,-0.0298,-0.0302,-0.0303,-0.0378,0,0,0,-0.035,-0.0358,-0.0351,-0.0356,-0.0341,-0.0335,-0.0351,-0.0318,-0.0315,-0.0303,-0.0298,-0.0297,-0.0302,-0.0303,-0.0376,-0.0395,0,0,0,-0.0354,-0.0358,-0.036,-0.0356,-0.0356,-0.0335,-0.0331,-0.0318,-0.0316,-0.0299,-0.0297,-0.0302,-0.0303,-0.0373,-0.039,-0.0346,0,0,0,-0.0359,-0.0378,-0.036,-0.0384,-0.0357,-0.0373,-0.0332,-0.0333,-0.0324,-0.0298,-0.0302,-0.0303,-0.0372,-0.0388,-0.0344,-0.0291,0,0,0,-0.0387,-0.0381,-0.0396,-0.0381,-0.0415,-0.0372,-0.0405,-0.0369,-0.0331,-0.0308,-0.0308,-0.0376,-0.039,-0.0345,-0.0344,0,0,0,0,-0.0408,-0.0423,-0.0429,-0.0446,-0.0442,-0.0447,-0.0417,-0.04,-0.0383,-0.0331,-0.0373,-0.0379,-0.0348,-0.0314,-0.0307,-0.0307,-0.0307,-0.0307,-0.0307,-0.0454,-0.046,-0.0497,-0.0507,-0.0515,-0.05,-0.0495,-0.0465,-0.043,-0.0435,-0.0439,-0.0454,-0.0426,-0.0443,-0.0443,-0.0444,-0.0444,-0.0444,-0.0444,-0.0513,-0.0537,-0.0552,-0.0592,-0.0591,-0.0609,-0.0577,-0.0552,-0.0516,-0.0501,-0.0467,-0.0397,-0.0452,-0.045,-0.0449,-0.0448,-0.0448,-0.0447,-0.0447,-0.0546,-0.0559,-0.0591,-0.0647,-0.0679,-0.0671,-0.066,-0.0633,-0.057,-0.0559,-0.0453,-0.0474,-0.0464,-0.0522,-0.0522,-0.0522,-0.0522,-0.0522,-0.0522,-0.0562,-0.0594,-0.0645,-0.0698,-0.0728,-0.0739,-0.0701,-0.0649,-0.0584,-0.0513,-0.0555,-0.0479,-0.0476,-0.0466,-0.052,-0.0521,-0.0521,-0.0521,-0.0521,-0.0589,-0.0606,-0.0676,-0.0718,-0.077,-0.0764,-0.0738,-0.0599,-0.0523,-0.0439,-0.0461,-0.0464,-0.041,-0.0409,-0.0394,-0.0429,-0.0428,-0.0428,0,-0.0596,-0.0614,-0.0693,-0.0746,-0.0767,-0.0769,-0.0654,-0.0575,-0.048,-0.0479,-0.0524,-0.0556,-0.0555,-0.0503,-0.05,-0.0488,0,0,0,-0.0607,-0.0632,-0.0677,-0.0737,-0.076,-0.0663,-0.0617,-0.0556,-0.0513,-0.0404,-0.0415,-0.0418,-0.05,-0.0517,-0.044,-0.0437,-0.0416,0,0]}]]